User: anonymous   Login
Location: Griffin Ranch
(33.6186°N, 110.6622°W)
Time: 15:34:47
(UTC-07:00)
Language:

Cosmos 1812 - Orbit

View from above orbital plane
View from above orbital plane
View from above satellite
View from above satellite

Ground track
Ground track

The orbit data is extracted from the following two-line orbital elements,

1 17295U 87003A   16121.29406145  .00000964  00000-0  51949-4 0  9995
2 17295  82.5158 190.9564 0005153 110.8657 249.3127 15.13651423596482
Epoch (UTC): 30 April 2016 07:03:26
Eccentricity: 0.0005153
inclination: 82.5158°
perigee height: 521 km
apogee height: 528 km
right ascension of ascending node: 190.9564°
argument of perigee: 110.8657°
revolutions per day: 15.13651423
mean anomaly at epoch: 249.3127°
orbit number at epoch: 59648

The dashed part of the orbit path shows where the satellite is in the earth's shadow,  

DLR